カタログに戻る

FENGYUN 1C DEB

運用中SSO
NORAD 31921·DEBRIS·🇨🇳 China

打ち上げ May 10, 1999 から Taiyuan Satellite Launch Center

Loading…

次のパス (今後24時間)

TLE

最新Source: Space-Track

元期: Sep 14, 2026, 03:51 UTC

1 31921U 99025CLY 26257.16067754  .00001020  00000-0  94849-3 0  9999
2 31921  99.3199 148.8853 0200904 262.1300  95.7004 13.75894416960934

AllMySatでFENGYUN 1C DEBをリアルタイム追跡

Download on the App Store